Location: Pedholt
(56.0260°N, 10.2097°E)
Time: 22:34:12
(UTC+00:00)

Transit 2A Rocket - Pass Details

Date: 04 August 2021
Orbit: 586 x 917 km, 66.7° (Epoch: 26 September)

Event Time Altitude Azimuth Distance (km) Brightness Sun altitude
Rises 11:45:19 0° 167° (SSE) 2,876 8.6 50.9°
Reaches altitude 10° 11:48:14 10° 146° (SE) 2,021 7.8 50.8°
Maximum altitude 11:51:01 16° 108° (ESE) 1,702 7.1 50.8°
Drops below altitude 10° 11:53:56 10° 70° (ENE) 2,140 7.2 50.7°
Sets 11:57:09 0° 50° (NE) 3,135 7.9 50.6°
